Time,TemperatureF,DewpointF,PressureIn,WindDirection,WindDirectionDegrees,WindSpeedMPH,WindSpeedGustMPH,Humidity,HourlyPrecipIn,Conditions,Clouds,dailyrainin,SoftwareType,DateUTC
2013-10-12 00:22:00,40.0,-99.9,-100.00,North,-999,-999.0,-999.0,-999,0.00,,,0.70,,2013-10-12 06:22:00,
2013-10-12 00:32:00,40.0,-99.9,-100.00,North,-999,-999.0,-999.0,-999,0.00,,,0.70,,2013-10-12 06:32:00,
2013-10-12 00:42:00,40.0,-99.9,-100.00,North,-999,-999.0,-999.0,-999,0.00,,,0.70,,2013-10-12 06:42:00,
2013-10-12 01:22:00,38.0,-99.9,-100.00,North,-999,-999.0,-999.0,-999,0.00,,,0.68,,2013-10-12 07:22:00,
2013-10-12 01:32:00,38.0,-99.9,-100.00,North,-999,-999.0,-999.0,-999,0.00,,,0.68,,2013-10-12 07:32:00,
2013-10-12 01:42:00,38.0,-99.9,-100.00,North,-999,-999.0,-999.0,-999,0.00,,,0.68,,2013-10-12 07:42:00,
2013-10-12 02:23:00,37.0,-99.9,-100.00,North,-999,-999.0,-999.0,-999,0.00,,,0.51,,2013-10-12 08:23:00,
2013-10-12 02:32:00,37.0,-99.9,-100.00,North,-999,-999.0,-999.0,-999,0.00,,,0.51,,2013-10-12 08:32:00,
2013-10-12 02:43:00,37.0,-99.9,-100.00,North,-999,-999.0,-999.0,-999,0.00,,,0.51,,2013-10-12 08:43:00,
2013-10-12 03:22:00,38.0,-99.9,-100.00,North,-999,-999.0,-999.0,-999,0.00,,,0.27,,2013-10-12 09:22:00,
2013-10-12 03:33:00,38.0,-99.9,-100.00,North,-999,-999.0,-999.0,-999,0.00,,,0.27,,2013-10-12 09:33:00,
2013-10-12 03:43:00,38.0,-99.9,-100.00,North,-999,-999.0,-999.0,-999,0.00,,,0.27,,2013-10-12 09:43:00,
2013-10-12 04:23:00,35.0,-99.9,-100.00,North,-999,-999.0,-999.0,-999,0.00,,,0.19,,2013-10-12 10:23:00,
2013-10-12 04:32:00,35.0,-99.9,-100.00,North,-999,-999.0,-999.0,-999,0.00,,,0.19,,2013-10-12 10:32:00,
2013-10-12 04:42:00,35.0,-99.9,-100.00,North,-999,-999.0,-999.0,-999,0.00,,,0.19,,2013-10-12 10:42:00,
2013-10-12 05:22:00,35.0,-99.9,-100.00,North,-999,-999.0,-999.0,-999,0.00,,,0.17,,2013-10-12 11:22:00,
2013-10-12 05:33:00,35.0,-99.9,-100.00,North,-999,-999.0,-999.0,-999,0.00,,,0.17,,2013-10-12 11:33:00,
2013-10-12 05:43:00,35.0,-99.9,-100.00,North,-999,-999.0,-999.0,-999,0.00,,,0.17,,2013-10-12 11:43:00,
2013-10-12 06:22:00,36.0,-99.9,-100.00,North,-999,-999.0,-999.0,-999,0.00,,,0.07,,2013-10-12 12:22:00,
2013-10-12 06:32:00,36.0,-99.9,-100.00,North,-999,-999.0,-999.0,-999,0.00,,,0.07,,2013-10-12 12:32:00,
2013-10-12 06:42:00,36.0,-99.9,-100.00,North,-999,-999.0,-999.0,-999,0.00,,,0.07,,2013-10-12 12:42:00,
2013-10-12 07:22:00,38.0,-99.9,-100.00,North,-999,-999.0,-999.0,-999,0.00,,,0.03,,2013-10-12 13:22:00,
2013-10-12 07:32:00,38.0,-99.9,-100.00,North,-999,-999.0,-999.0,-999,0.00,,,0.03,,2013-10-12 13:32:00,
2013-10-12 07:42:00,38.0,-99.9,-100.00,North,-999,-999.0,-999.0,-999,0.00,,,0.03,,2013-10-12 13:42:00,
2013-10-12 08:22:00,37.0,-99.9,-100.00,North,-999,-999.0,-999.0,-999,0.00,,,0.00,,2013-10-12 14:22:00,
2013-10-12 08:32:00,37.0,-99.9,-100.00,North,-999,-999.0,-999.0,-999,0.00,,,0.00,,2013-10-12 14:32:00,
2013-10-12 08:42:00,37.0,-99.9,-100.00,North,-999,-999.0,-999.0,-999,0.00,,,0.00,,2013-10-12 14:42:00,
2013-10-12 09:44:00,45.0,-99.9,-100.00,North,-999,-999.0,-999.0,-999,0.00,,,0.00,,2013-10-12 15:44:00,
2013-10-12 10:23:00,50.0,-99.9,-100.00,North,-999,-999.0,-999.0,-999,0.00,,,0.00,,2013-10-12 16:23:00,
2013-10-12 10:33:00,50.0,-99.9,-100.00,North,-999,-999.0,-999.0,-999,0.00,,,0.00,,2013-10-12 16:33:00,
2013-10-12 10:43:00,50.0,-99.9,-100.00,North,-999,-999.0,-999.0,-999,0.00,,,0.00,,2013-10-12 16:43:00,
2013-10-12 11:23:00,51.0,-99.9,-100.00,North,-999,-999.0,-999.0,-999,0.00,,,0.00,,2013-10-12 17:23:00,
2013-10-12 11:34:00,51.0,-99.9,-100.00,North,-999,-999.0,-999.0,-999,0.00,,,0.00,,2013-10-12 17:34:00,
2013-10-12 11:43:00,51.0,-99.9,-100.00,North,-999,-999.0,-999.0,-999,0.00,,,0.00,,2013-10-12 17:43:00,
2013-10-12 12:22:00,54.0,-99.9,-100.00,North,-999,-999.0,-999.0,-999,0.00,,,0.00,,2013-10-12 18:22:00,
2013-10-12 12:32:00,54.0,-99.9,-100.00,North,-999,-999.0,-999.0,-999,0.00,,,0.00,,2013-10-12 18:32:00,
2013-10-12 12:42:00,54.0,-99.9,-100.00,North,-999,-999.0,-999.0,-999,0.00,,,0.00,,2013-10-12 18:42:00,
2013-10-12 13:22:00,54.0,-99.9,-100.00,North,-999,-999.0,-999.0,-999,0.00,,,0.00,,2013-10-12 19:22:00,
2013-10-12 13:32:00,54.0,-99.9,-100.00,North,-999,-999.0,-999.0,-999,0.00,,,0.00,,2013-10-12 19:32:00,
2013-10-12 13:42:00,54.0,-99.9,-100.00,North,-999,-999.0,-999.0,-999,0.00,,,0.00,,2013-10-12 19:42:00,
2013-10-12 14:22:00,55.0,-99.9,-100.00,North,-999,-999.0,-999.0,-999,0.00,,,0.00,,2013-10-12 20:22:00,
2013-10-12 14:32:00,55.0,-99.9,-100.00,North,-999,-999.0,-999.0,-999,0.00,,,0.00,,2013-10-12 20:32:00,
2013-10-12 14:43:00,55.0,-99.9,-100.00,North,-999,-999.0,-999.0,-999,0.00,,,0.00,,2013-10-12 20:43:00,
2013-10-12 15:22:00,55.0,-99.9,-100.00,North,-999,-999.0,-999.0,-999,0.00,,,-99.99,,2013-10-12 21:22:00,
2013-10-12 15:35:00,55.0,-99.9,-100.00,North,-999,-999.0,-999.0,-999,0.00,,,-99.99,,2013-10-12 21:35:00,
2013-10-12 15:43:00,55.0,-99.9,-100.00,North,-999,-999.0,-999.0,-999,0.00,,,-99.99,,2013-10-12 21:43:00,
2013-10-12 16:25:00,57.0,-99.9,-100.00,North,-999,-999.0,-999.0,-999,0.00,,,0.00,,2013-10-12 22:25:00,
2013-10-12 16:33:00,57.0,-99.9,-100.00,North,-999,-999.0,-999.0,-999,0.00,,,0.00,,2013-10-12 22:33:00,
2013-10-12 16:43:00,57.0,-99.9,-100.00,North,-999,-999.0,-999.0,-999,0.00,,,0.00,,2013-10-12 22:43:00,
2013-10-12 17:22:00,55.0,-99.9,-100.00,North,-999,-999.0,-999.0,-999,0.00,,,0.00,,2013-10-12 23:22:00,
2013-10-12 17:33:00,55.0,-99.9,-100.00,North,-999,-999.0,-999.0,-999,0.00,,,0.00,,2013-10-12 23:33:00,
2013-10-12 17:42:00,55.0,-99.9,-100.00,North,-999,-999.0,-999.0,-999,0.00,,,0.00,,2013-10-12 23:42:00,
2013-10-12 18:22:00,54.0,-99.9,-100.00,North,-999,-999.0,-999.0,-999,0.00,,,0.00,,2013-10-13 00:22:00,
2013-10-12 18:32:00,54.0,-99.9,-100.00,North,-999,-999.0,-999.0,-999,0.00,,,0.00,,2013-10-13 00:32:00,
2013-10-12 18:42:00,54.0,-99.9,-100.00,North,-999,-999.0,-999.0,-999,0.00,,,0.00,,2013-10-13 00:42:00,
2013-10-12 19:22:00,46.0,-99.9,-100.00,North,-999,-999.0,-999.0,-999,0.00,,,0.00,,2013-10-13 01:22:00,
2013-10-12 19:32:00,46.0,-99.9,-100.00,North,-999,-999.0,-999.0,-999,0.00,,,0.00,,2013-10-13 01:32:00,
2013-10-12 19:42:00,46.0,-99.9,-100.00,North,-999,-999.0,-999.0,-999,0.00,,,0.00,,2013-10-13 01:42:00,
2013-10-12 20:22:00,45.0,-99.9,-100.00,North,-999,-999.0,-999.0,-999,0.00,,,0.00,,2013-10-13 02:22:00,
2013-10-12 20:32:00,45.0,-99.9,-100.00,North,-999,-999.0,-999.0,-999,0.00,,,0.00,,2013-10-13 02:32:00,
2013-10-12 20:43:00,45.0,-99.9,-100.00,North,-999,-999.0,-999.0,-999,0.00,,,0.00,,2013-10-13 02:43:00,
2013-10-12 20:45:00,45.0,-99.9,-100.00,North,-999,-999.0,-999.0,-999,0.00,,,0.00,,2013-10-13 02:45:00,
2013-10-12 21:23:00,45.0,-99.9,-100.00,North,-999,-999.0,-999.0,-999,0.00,,,0.00,,2013-10-13 03:23:00,
2013-10-12 21:34:00,45.0,-99.9,-100.00,North,-999,-999.0,-999.0,-999,0.00,,,0.00,,2013-10-13 03:34:00,
2013-10-12 23:23:00,43.0,-99.9,-100.00,North,-999,-999.0,-999.0,-999,0.00,,,0.00,,2013-10-13 05:23:00,
2013-10-12 23:34:00,43.0,-99.9,-100.00,North,-999,-999.0,-999.0,-999,0.00,,,0.00,,2013-10-13 05:34:00,
2013-10-12 23:43:00,43.0,-99.9,-100.00,North,-999,-999.0,-999.0,-999,0.00,,,0.00,,2013-10-13 05:43:00,